Rome Urbe AFB, Italy

8:51 AM CEST on September 23, 2017 (GMT +0200)
Urbe

Weather History for LIRU - October, 2012

Change the Weather History Date:

Thursday, October 11, 2012

  Actual Average Record
Temperature  
Mean Temperature 67 °F -  
Max Temperature 77 °F 69 °F 84 °F (2001)
Min Temperature 57 °F 48 °F 46 °F (2011)
Cooling Degree Days 2    
Growing Degree Days 17 (Base 50)    
Moisture  
Dew Point 63 °F    
Average Humidity 87    
Maximum Humidity 100    
Minimum Humidity 65    
Precipitation  
Precipitation 0.00 in 0.15 in - ()
Sea Level Pressure  
Sea Level Pressure 29.85 in    
Wind  
Wind Speed 3 mph ()    
Max Wind Speed 10 mph    
Max Gust Speed -    
Visibility 4.1 miles    
Events Fog    
Averages and records for this station are not official NWS values.
T = Trace of Precipitation, MM = Missing Value Source: Averaged Metar Reports

Daily Weather History Graph

Daily Weather History Graph

Search for Another Location

Airport or City:

Trip Planner

Search our weather history database for the weather conditions in past years. The results will help you decide how hot, cold, wet, or windy it might be!

Date:

Astronomy

Oct. 11, 2012 Rise Set
Actual Time 7:18 AM CEST 6:34 PM CEST
Civil Twilight 6:50 AM CEST 7:02 PM CEST
Nautical Twilight 6:17 AM CEST 7:34 PM CEST
Astronomical Twilight 5:45 AM CEST 8:07 PM CEST
Moon 2:34 AM CEST (10/11) 4:04 PM CEST (10/11)
Length of Visible Light 12h 12m
Length of Day
11h 16m
Waning Crescent, 20% of the Moon is Illuminated
Oct 11
Waning Crescent
Oct 15
New
Oct 22
First Quarter
Oct 29
Full
Nov 7
Last Quarter

Hourly Weather History & Observations

Time (CEST) Temp. Dew Point Humidity Pressure Visibility Wind Dir Wind Speed Gust Speed Precip Events Conditions
7:25 AM 57.2 °F 57.2 °F 100% 29.83 in 0.1 mi North 4.6 mph - N/A Fog Fog
7:50 AM 57.2 °F 57.2 °F 100% 29.83 in 0.1 mi Variable 3.5 mph - N/A Fog Fog
8:50 AM 59.0 °F 59.0 °F 100% 29.86 in 0.3 mi Variable 2.3 mph - N/A Fog Fog
9:18 AM 60.8 °F 60.8 °F 100% 29.86 in 0.6 mi Variable 3.5 mph - N/A   Mist
9:28 AM 60.8 °F 60.8 °F 100% 29.86 in 1.6 mi Variable 3.5 mph - N/A   Mist
9:50 AM 62.6 °F 62.6 °F 100% 29.86 in 1.9 mi Variable 3.5 mph - N/A   Mist
10:18 AM 64.4 °F 64.4 °F 100% 29.86 in 3.7 mi Variable 2.3 mph - N/A   Unknown
10:50 AM 66.2 °F 64.4 °F 94% 29.86 in 3.7 mi Variable 3.5 mph - N/A   Unknown
11:50 AM 71.6 °F 64.4 °F 78% 29.86 in - Variable 2.3 mph - N/A   Clear
12:50 PM 75.2 °F 64.4 °F 69% 29.86 in 6.2 mi Variable 1.2 mph - N/A   Scattered Clouds
1:50 PM 75.2 °F 64.4 °F 69% 29.83 in 6.2 mi Variable 1.2 mph - N/A   Scattered Clouds
2:50 PM 77.0 °F 64.4 °F 65% 29.83 in 6.2 mi SW 10.4 mph - N/A   Scattered Clouds
3:50 PM 75.2 °F 62.6 °F 65% 29.83 in 6.2 mi SW 10.4 mph - N/A   Mostly Cloudy
4:50 PM 73.4 °F 64.4 °F 73% 29.83 in 6.2 mi SW 5.8 mph - N/A   Partly Cloudy
5:50 PM 71.6 °F 66.2 °F 83% 29.83 in 6.2 mi SSW 4.6 mph - N/A   Scattered Clouds
6:50 PM 69.8 °F 66.2 °F 88% 29.83 in 6.2 mi SSW 4.6 mph - N/A   Scattered Clouds
7:50 PM 69.8 °F 60.8 °F 73% 29.86 in 6.2 mi Variable 3.5 mph - N/A   Scattered Clouds
8:50 PM 68.0 °F 66.2 °F 94% 29.86 in 6.2 mi Calm Calm - N/A   Scattered Clouds
9:50 PM 68.0 °F 66.2 °F 94% 29.86 in 6.2 mi Variable 1.2 mph - N/A   Scattered Clouds